RH
34 40 43 37 38 33 35 41 47 39 34 38 40 41 38 38 58 60 51 43 33 29 26 22 24 40 66 85 97 100 90 100 94 98 100 100 100 100 100 100 100 100 100 100
40 47 36 32 35 39 43 49 49 43 39 42 38 36 30 41 35 32 25 25 25 25 24 23 22 24 28 50 67 65 91 99 100 100 100 100 100 100 100 100 99 100 100 100
39 32 34 36 37 40 42 47 47 43 33 31 33 36 39 30 25 23 23 23 24 24 26 26 25 23 21 25 38 66 64 61 59 78 99 100 100 100 97 97 99 100 100 100
40 33 32 34 41 42 50 39 40 39 40 51 29 50 33 39 30 25 24 26 26 26 27 30 32 29 28 25 21 28 55 46 49 62 65 84 95 98 96 92 94 97 98 100
45 38 41 47 43 39 44 37 38 41 47 42 41 47 49 32 32 27 25 25 30 33 36 40 42 38 39 39 30 24 27 31 42 38 32 37 66 77 77 90 91 91 94 100
40 34 35 41 38 40 36 35 38 50 44 64 44 44 48 50 37 29 24 26 33 43 47 48 42 40 42 36 39 42 42 37 36 44 54 68 80 76 88 86 88 82 90 99
51 52 43 32 37 34 32 46 73 72 69 67 51 50 43 34 29 28 27 32 40 49 49 49 51 46 45 46 40 37 43 47 47 47 46 47 53 56 79 81 81 80 88 94
71 74 42 32 36 40 43 50 72 80 73 62 51 67 59 32 29 29 38 47 49 50 48 46 41 39 39 46 47 47 48 51 45 57 51 51 58 64 73 76 76 80 98 85
70 68 41 36 34 34 48 56 48 70 74 79 62 46 34 34 37 49 55 52 48 56 50 46 45 46 46 47 52 56 60 61 57 60 59 56 57 64 71 78 93 97 83 85
58 80 53 51 37 38 44 44 69 96 97 89 71 67 64 42 44 55 60 54 56 54 57 60 59 59 62 62 66 66 67 67 62 62 60 64 67 66 67 76 84 94 94 92
58 74 74 58 56 60 54 56 59 89 98 95 85 69 48 55 67 75 61 65 70 70 67 68 62 55 62 72 76 78 80 77 66 61 62 68 74 75 69 81 99 97 97 97
65 82 98 78 59 47 45 50 68 98 97 98 97 83 54 58 52 58 68 65 66 65 68 60 58 62 76 78 79 82 86 79 60 62 70 69 80 82 83 82 89 98 99 99
72 98 96 72 54 45 49 45 66 94 96 94 95 87 50 50 48 57 68 72 68 64 61 65 67 71 74 86 83 83 89 83 69 71 67 66 64 69 77 86 96 100 97 98
75 98 96 88 68 71 84 68 92 95 96 92 87 79 61 56 51 59 54 58 60 65 72 74 78 77 79 86 87 87 90 82 73 73 74 73 74 80 87 96 97 100 99 100
88 99 95 88 80 76 88 96 96 96 92 96 78 83 64 46 62 56 55 58 69 77 68 71 78 79 85 91 91 91 94 84 80 76 77 82 83 95 99 100 94 96 99 100
98 98 94 96 74 74 76 78 81 86 80 76 57 55 49 50 50 58 64 71 81 78 78 77 77 82 89 95 95 89 86 84 86 80 79 85 98 98 98 98 99 98 100 99
100 98 98 93 72 72 83 74 63 55 51 54 61 52 68 52 58 72 73 80 86 75 81 84 85 82 93 92 90 94 84 85 85 81 84 99 99 99 99 99 100 99 99 98
99 98 98 96 78 98 53 47 44 56 52 58 82 80 65 66 73 84 80 90 89 81 86 83 85 83 83 90 82 96 90 90 84 88 100 100 100 100 99 99 100 100 100 100
100 96 95 97 92 63 40 87 88 91 80 66 85 72 69 71 87 73 67 79 76 94 86 80 81 82 76 95 86 98 88 87 89 100 99 100 99 99 99 100 100 99 100 100
93 83 85 90 95 95 64 86 79 80 82 63 84 77 84 90 99 63 62 77 82 82 83 87 75 72 74 90 87 95 92 92 100 100 100 100 100 100 100 100 100 98 100 99
69 86 93 98 96 78 66 82 82 87 69 74 79 81 90 96 86 72 81 77 79 91 96 87 67 70 77 84 86 89 95 100 99 98 95 97 98 100 100 99 99 99 99 99
61 84 94 94 100 92 74 86 83 65 60 59 68 72 82 84 87 82 85 100 95 96 87 69 67 70 77 78 83 88 97 99 100 98 97 96 98 98 99 100 98 98 98 100
77 71 86 79 77 51 70 67 63 63 73 71 73 78 92 96 96 96 100 88 73 65 66 65 68 72 73 76 83 90 94 97 100 100 100 100 98 99 100 100 99 99 99 97
50 56 78 62 50 60 59 54 60 62 74 73 83 93 97 99 100 96 76 73 72 69 71 74 70 73 73 76 81 87 92 97 100 100 99 100 100 100 100 100 99 99 100 99
63 66 70 81 67 63 60 62 65 82 89 82 90 90 98 98 84 82 82 75 76 72 73 74 74 72 73 75 78 86 94 99 100 100 99 100 100 100 100 100 100 99 99 100
68 70 81 80 61 70 55 53 83 90 83 77 88 94 91 81 83 79 77 78 81 72 68 68 71 76 76 74 77 84 90 100 100 99 96 95 100 100 100 100 100 99 99 100
Wind_Speed
2 3 6 10 8 4 2 3 10 12 12 3 14 13 13 2 6 6 6 7 8 8 9 17 26 29 27 28 22 11 6 15 22 24 23 24 26 26 30 31 33 32 33 38
4 6 8 3 3 5 5 7 12 11 10 5 10 10 8 1 3 2 4 5 6 7 9 12 22 27 29 29 26 24 18 11 4 15 19 12 17 15 20 21 22 26 26 30
5 4 5 5 2 3 4 6 5 10 6 4 6 7 5 1 3 2 3 3 4 6 8 10 13 21 26 27 25 20 18 20 20 15 5 5 4 7 7 15 18 18 21 25
5 3 2 2 4 7 5 9 12 7 2 4 2 13 5 7 6 2 5 7 7 8 7 7 10 18 22 20 17 16 14 13 12 11 13 9 4 3 6 8 12 15 17 25
7 3 5 6 7 4 10 5 7 5 6 2 6 5 3 8 4 3 5 7 8 8 7 8 8 18 23 27 22 17 13 12 9 6 4 4 3 6 8 13 14 15 14 21
9 2 4 8 6 7 5 6 5 3 2 5 14 11 2 3 5 5 4 6 7 7 8 8 19 25 26 27 26 24 21 16 14 11 9 7 8 11 11 14 16 13 12 17
4 7 6 2 1 3 1 5 5 4 0 6 2 3 6 6 9 8 6 6 7 7 8 9 9 14 21 22 26 27 27 24 20 16 14 13 16 15 21 21 19 15 15 18
4 6 2 2 2 3 6 8 5 6 4 6 4 6 2 5 7 7 7 7 8 7 7 6 9 16 19 23 26 31 28 29 26 15 14 15 16 18 20 23 26 23 25 24
4 4 3 2 2 0 1 4 2 4 2 7 5 4 4 5 6 6 7 9 10 7 9 12 16 21 23 25 26 30 32 30 28 18 15 13 14 15 16 18 25 25 28 29
2 10 3 2 1 5 6 3 1 2 5 8 5 5 4 4 5 6 13 13 8 9 12 13 13 20 22 24 23 30 31 32 25 17 16 18 17 16 18 18 19 24 26 26
3 4 2 2 5 7 3 4 3 1 4 4 8 3 3 10 8 11 13 9 10 11 11 13 14 20 19 23 22 23 27 25 17 15 17 19 18 17 17 18 14 15 21 26
4 2 7 13 7 3 3 2 2 5 3 3 2 6 10 6 6 9 6 8 10 10 12 12 15 18 20 27 25 22 26 22 15 14 15 15 15 17 18 17 17 15 15 17
5 3 6 6 4 4 2 3 4 2 1 6 7 3 3 15 20 7 6 9 9 9 9 10 10 14 20 24 25 24 23 22 13 11 11 13 18 21 22 22 22 17 16 15
4 4 8 14 10 3 3 2 2 4 3 4 6 14 12 20 19 6 7 7 10 8 10 12 12 13 20 25 25 25 25 20 6 6 9 12 15 17 19 20 21 18 16 18
3 5 6 8 8 6 8 7 7 8 7 7 11 16 18 15 4 5 7 8 9 12 15 16 18 15 21 31 30 23 22 15 8 5 9 15 17 18 18 18 21 21 20 19
2 2 1 4 8 8 7 6 11 13 14 15 13 14 2 3 4 6 11 8 12 12 16 17 17 16 19 27 27 29 21 14 5 7 13 16 19 17 17 15 15 15 14 16
5 2 1 3 4 5 6 5 5 2 4 6 9 9 4 4 6 5 11 10 10 16 17 14 15 16 20 30 27 23 22 12 4 9 14 16 16 16 17 17 17 17 18 18
4 4 2 2 4 2 2 2 2 3 7 7 7 6 6 6 7 9 9 7 8 11 15 14 14 21 25 32 28 25 7 4 9 13 14 15 18 21 20 19 18 20 20 20
4 3 1 2 2 7 2 3 3 3 6 4 5 8 6 3 6 7 6 6 9 14 11 16 21 23 23 28 27 14 10 11 14 16 15 18 19 17 19 18 19 21 21 22
4 3 3 2 1 4 2 4 3 3 4 5 4 9 3 2 3 10 6 6 12 14 14 19 23 22 23 26 24 20 19 18 16 15 16 18 16 15 16 17 19 17 18 20
3 1 4 2 3 7 3 4 2 5 6 2 3 9 3 4 6 6 10 13 10 12 15 18 17 18 20 24 24 20 22 19 19 20 20 20 18 17 16 18 17 18 16 15
4 3 3 3 1 6 6 3 5 6 5 5 5 5 5 7 11 12 12 8 8 9 14 14 15 19 20 22 22 19 18 20 22 23 22 21 21 20 18 16 17 15 13 11
3 6 4 7 5 4 6 6 7 4 6 7 4 3 4 11 16 11 5 9 6 9 12 14 13 17 18 23 24 23 26 26 25 23 21 22 25 23 19 15 15 15 11 9
3 4 3 1 3 9 7 5 5 4 6 7 5 6 7 8 8 7 6 4 5 10 10 13 13 15 16 19 20 20 24 25 24 23 24 24 21 24 24 19 14 13 12 9
5 6 5 5 8 6 9 6 7 5 5 6 5 5 5 5 6 5 5 5 7 9 11 11 12 12 12 15 18 18 22 24 22 22 22 22 21 21 21 20 16 13 13 12
5 6 4 6 8 5 5 4 4 4 4 6 6 7 7 6 5 3 4 7 8 10 11 12 13 13 13 15 20 19 22 23 22 22 21 23 23 22 22 18 16 13 11 12
Wind_Direction
5 104 208 218 196 187 196 246 256 270 267 240 262 267 270 3 65 41 40 28 18 5 321 3 25 36 36 40 40 41 251 224 228 218 216 205 213 221 228 227 231 227 223 225
29 227 229 189 178 201 228 254 272 280 274 165 267 252 258 24 41 55 61 29 16 1 356 358 9 23 31 38 45 51 49 60 182 226 211 204 204 233 237 241 235 226 220 221
175 237 114 165 182 197 239 220 246 252 322 273 291 274 181 141 151 133 36 3 19 357 353 354 356 10 22 21 19 29 43 50 48 40 41 112 123 253 265 262 257 243 237 237
227 289 157 216 267 172 240 248 239 247 343 248 72 293 201 175 171 110 31 23 9 9 2 352 353 3 17 16 24 29 27 40 52 51 47 37 22 269 266 285 281 267 263 254
256 250 256 248 237 172 268 232 241 230 226 307 196 245 65 117 171 109 36 26 14 7 3 1 357 3 11 15 17 20 26 33 27 24 61 102 240 285 298 282 273 260 261 250
264 248 215 222 243 221 308 306 289 52 158 261 217 195 55 164 153 119 46 23 15 5 354 357 3 360 359 2 360 354 351 346 345 343 330 305 276 268 256 248 250 259 259 253
292 264 249 167 279 349 89 39 315 312 323 239 16 209 292 93 86 107 79 20 7 1 357 349 350 345 336 342 342 337 332 324 329 320 310 303 293 290 290 275 278 270 261 244
284 325 350 14 181 257 211 168 191 274 238 270 191 249 90 99 88 73 56 28 4 335 331 331 335 339 336 330 329 323 319 310 313 306 314 318 309 297 278 287 279 267 248 248
304 257 283 241 19 117 357 199 268 291 70 290 211 98 347 83 72 68 52 3 333 320 329 341 339 332 327 317 310 310 304 303 299 300 313 319 307 307 306 290 272 267 263 258
289 295 230 326 247 249 202 201 300 50 265 251 235 219 166 114 89 47 354 334 326 334 331 323 316 310 310 302 304 300 300 292 286 298 306 313 322 324 321 310 288 267 260 258
7 220 241 46 198 211 228 212 124 246 219 259 286 262 129 91 50 1 324 311 298 305 304 301 294 293 297 304 299 286 290 292 300 306 312 313 320 324 325 324 317 297 280 266
173 257 270 272 261 66 71 347 135 224 226 217 256 266 155 125 15 341 295 301 305 299 296 301 304 299 312 315 306 298 298 308 301 304 306 319 327 329 325 324 325 322 301 289
162 225 302 295 27 39 76 48 113 79 136 237 271 297 221 333 327 328 275 269 283 289 301 301 308 313 312 312 308 305 306 303 286 301 324 339 345 341 335 328 323 319 313 300
111 218 226 256 286 86 272 208 83 186 229 294 249 292 313 310 305 309 303 299 307 310 311 323 320 315 320 331 316 309 308 309 285 305 332 342 347 338 330 322 320 322 312 296
183 247 216 264 279 264 246 228 218 226 232 245 286 275 282 291 310 294 294 301 322 328 330 335 331 326 325 337 323 311 304 304 307 317 349 347 347 347 343 333 329 323 318 310
162 272 271 263 248 248 262 238 235 233 247 257 274 287 316 312 329 325 320 329 327 318 325 324 322 328 331 321 315 307 295 293 325 357 1 352 355 348 338 331 327 320 316 310
178 182 140 272 29 315 286 247 236 259 276 273 277 288 343 309 322 312 307 315 312 322 317 324 319 324 320 320 318 317 299 311 13 12 2 357 351 342 342 337 333 329 328 329
176 164 185 314 347 279 196 29 288 290 279 306 318 300 295 288 290 284 281 276 289 320 316 322 320 320 330 324 330 345 341 31 25 19 11 360 355 349 344 337 335 336 334 334
198 108 226 239 251 312 149 10 59 39 298 248 231 268 259 326 310 288 257 253 335 319 312 319 317 313 332 331 340 347 24 27 21 18 4 360 359 344 340 339 337 336 333 333
125 103 133 132 172 268 204 190 184 184 284 242 205 271 244 39 343 294 276 308 314 309 326 321 319 333 341 343 352 12 18 19 21 1 357 0 357 352 344 338 331 326 330 328
139 109 177 167 223 282 227 171 148 77 248 275 223 253 212 204 227 279 312 312 318 330 321 326 339 341 345 347 352 13 16 12 355 347 346 345 346 347 347 340 330 323 326 329
166 168 216 137 104 281 159 110 144 226 282 270 273 264 259 266 283 292 311 302 308 322 329 336 346 344 348 356 1 3 16 1 351 344 336 335 338 341 337 330 329 319 320 327
218 188 189 183 217 213 195 205 245 244 251 268 260 281 288 308 295 301 285 291 312 345 344 348 355 339 350 359 3 3 356 352 348 344 332 325 331 327 326 317 310 310 309 314
245 179 213 34 244 246 251 264 252 275 243 257 221 275 307 300 310 308 301 346 349 344 354 351 348 347 351 360 358 357 349 346 341 339 336 333 321 316 316 313 297 292 289 289
201 158 208 258 278 271 258 229 240 259 294 286 225 274 291 295 293 305 317 337 336 327 339 350 346 338 346 355 355 352 348 344 338 337 336 330 330 321 307 300 290 280 284 276
182 200 170 227 222 190 245 243 220 245 283 319 268 269 251 251 283 312 326 338 332 331 343 340 334 338 344 354 355 349 348 349 342 334 332 328 321 316 311 297 284 282 271 275